Find STARLINK-37465

NORAD ID: 68847 Int'l Des: 2026-094J Owner: starlink Country: USA Constellation: starlink operational
LEOCIRCULARRETROGRADE

Live Position

Loading 3D Globe...

About STARLINK-37465

Description loading...

Upcoming Passes

Passes for default location (London). Set your location on the main map for personalized predictions.

Altitude History

Loading altitude history...

Two-Line Element Set

1 68847U 26094J 26120.66670139 -.01723411 96274-3 -24640-2 0 9993
2 68847 97.2836 134.1609 0001299 91.1073 121.4869 16.05649890 1668
Epoch: Apr 30, 2026 • Age: 31 hours

Current Status

Altitude 274.7 km
Velocity 7.75 km/s
Sub-Earth Point 36.05°N, 70.4°W
Type internet

Most Searched